Regional Weather Roundup
Issued by NWS

Home | Current Version | Previous Version | Graphics & Text | Print | Product List | Glossary On
Versions: 1 2 3 4 5 6 7 8 9 10 11 12 13 14 15 16 17 18 19 20 21 22 23 24 25 26 27 28 29 30 31 32 33 34 35 36 37 38 39 40 41 42 43 44 45 46 47 48 49 50
000
ASUS43 KTOP 100008
RWRKS

WEATHER ROUNDUP FOR KANSAS
NATIONAL WEATHER SERVICE GOODLAND KS
600 PM CST TUE FEB 09 2016

NOTE:  "FAIR" INDICATES FEW OR NO CLOUDS BELOW 12,000 FEET WITH NO
SIGNIFICANT WEATHER AND/OR OBSTRUCTIONS TO VISIBILITY.

KSZ001>006-013>018-027>032-041>047-100100-
NORTHWEST KANSAS

CITY           SKY/WX    TMP DP  RH WIND       PRES   REMARKS
GOODLAND       CLEAR     42  30  62 W10       30.22S
6HR MIN TEMP:  40; 6HR MAX TEMP:  48;

HAYS           CLOUDY    36  16  44 NE3       30.28S
HILL CITY      CLOUDY    35  24  64 SE5       30.27R
6HR MIN TEMP:  35; 6HR MAX TEMP:  39;

RUSSELL        CLOUDY    32  19  58 NE5       30.29R
6HR MIN TEMP:  32; 6HR MAX TEMP:  35;

$$

KSZ061>065-074>080-084>089-100100-
SOUTHWEST KANSAS

CITY           SKY/WX    TMP DP  RH WIND       PRES   REMARKS
DODGE CITY     PTCLDY    43  21  41 CALM      30.25F
6HR MIN TEMP:  43; 6HR MAX TEMP:  47;

ELKHART          N/A     56  26  31 N9          N/A
GARDEN CITY    CLEAR     47  27  45 N6        30.24F
6HR MIN TEMP:  45; 6HR MAX TEMP:  52;

GREAT BEND     CLEAR     34  16  47 NE7       30.31R
LIBERAL        CLEAR     52  27  37 N7        30.27R
PRATT          PTCLDY    36  18  47 NE8       30.28S
6HR MIN TEMP:  36; 6HR MAX TEMP:  42;

$$

KSZ066>073-081>083-090>101-100100-
SOUTHEAST KANSAS

CITY           SKY/WX    TMP DP  RH WIND       PRES   REMARKS
CHANUTE        CLEAR     31   8  38 N15       30.27R WCI  20
6HR MIN TEMP:  31; 6HR MAX TEMP:  39;

COFFEYVILLE    CLEAR     35   9  33 N14       30.27R WCI  26
6HR MIN TEMP:  35; 6HR MAX TEMP:  42;

HUTCHINSON     CLOUDY    35  15  44 N8        30.31R
6HR MIN TEMP:  35; 6HR MAX TEMP:  42;

MEDICINE LODGE   N/A     42  21  43 N9        30.28S
NEWTON         CLEAR     30  10  43 N13       30.31R WCI  20
PARSONS        CLEAR     34   9  35 N16       30.26R WCI  24
6HR MIN TEMP:  34; 6HR MAX TEMP:  42;

WICHITA INTL   MOCLDY    36  16  44 N13       30.30R WCI  27
6HR MIN TEMP:  36; 6HR MAX TEMP:  43;

WICHITA JABRA  CLEAR     33  14  45 NW16      30.30R WCI  23
6HR MIN TEMP:  33; 6HR MAX TEMP:  41;

WICHITA MCCONL CLEAR     34  14  44 N16       30.29R WCI  24
WINFIELD       CLEAR     37  17  44 NW10      30.30R WCI  30
6HR MIN TEMP:  37; 6HR MAX TEMP:  45;

$$

KSZ007>012-019>026-033>040-048>060-102>105-100100-
NORTHEAST KANSAS

CITY           SKY/WX    TMP DP  RH WIND       PRES   REMARKS
CONCORDIA      CLEAR     26  11  52 NW7       30.30S
6HR MIN TEMP:  26; 6HR MAX TEMP:  31;

EMPORIA        CLOUDY    28   6  39 N15G24    30.29R WCI  16
6HR MIN TEMP:  28; 6HR MAX TEMP:  36;

LAWRENCE       CLEAR     25   5  42 NW10      30.27S WCI  15
6HR MIN TEMP:  25; 6HR MAX TEMP:  32;

MANHATTAN      PTCLDY    28   8  43 N5        30.32R
6HR MIN TEMP:  28; 6HR MAX TEMP:  33;

MARYSVILLE     CLOUDY    28  12  50 NW9       30.29R
OLATHE IND     CLEAR     25   3  38 NW15G24   30.24S WCI  13
6HR MIN TEMP:  25; 6HR MAX TEMP:  31;

OLATHE EXE     CLEAR     25   1  35 N9G22     30.23S
6HR MIN TEMP:  25; 6HR MAX TEMP:  30;

SALINA         MOCLDY    31  11  43 N8        30.33R
6HR MIN TEMP:  31; 6HR MAX TEMP:  40;

TOPEKA BILLARD CLEAR     27   5  39 NW13      30.29R WCI  16
6HR MIN TEMP:  27; 6HR MAX TEMP:  33;

TOPEKA FORBES  CLEAR     28   6  39 N14       30.27R WCI  17
6HR MIN TEMP:  28; 6HR MAX TEMP:  34;

$$



USA.gov is the U.S. government's official web portal to all federal, state and local government web resources and services.